SCP
0 0 0 0 0 0 0 0 0 0 0 0 0 0 0 0 0 0 0 0 0 0 0 0 0 0 0 0 0 0 0 0 0 0 0 0 0 0 0 0 0 0 0
0 0 0 0 0 0 0 0 0 0 0 0 0 0 0 0 0 0 0 0 0 0 0 0 0 0 0 0 0 0 0 0 0 0 0 0 0 0 0 0 0 0 0
0 0 0 0 0 0 0 0 0 0 0 0 0 0 0 0 0 0 0 0 0 0 0 0 0 0 0 0 0 0 0 0 0 0 0 0 0 0 0 0 0 0 0
0 0 0 0 0 0 0 0 0 0 0 0 0 0 0 0 0 0 0 0 0 0 0 0 0 0 0 0 0 0 0 0 0 0 0 0 0 0 0 0 0 0 0
0 0 0 0 0 0 0 0 0 0 0 0 0 0 0 0 0 0 0 0 0 0 0 0 0 0 0 0 0 0 0 0 0 0 0 0 0 0 0 0 0 0 0
0 0 0 0 0 0 0 0 0 0 0 0 0 0 0 0 0 0 0 0 0 0 0 0 0 0 0 0 0 0 0 0 0 0 0 0 0 0 0 0 0 0 0
0 0 0 0 0 0 0 0 0 0 0 0 0 0 0 0 0 0 0 0 0 0 0 0 0 0 0 0 0 0 0 0 0 0 0 0 0 0 0 0 0 0 0
0 0 0 0 0 0 0 0 0 0 0 0 0 0 0 0 0 0 0 0 0 0 0 0 0 0 0 0 0 0 0 0 0 0 0 0 0 0 0 0 0 0 0
0 0 0 0 0 0 0 -0 -0 -0 0 0 0 0 0 0 0 0 0 0 0 0 0 0 0 0 0 0 0 0 0 0 0 0 0 0 0 0 0 0 0 0 0
0 0 0 0 0 0 -0 -0 -0 0 0 0 0 0 0 0 0 0 0 0 0 0 0 0 0 0 0 0 0 0 0 0 0 0 0 0 0 0 0 0 0 0 0
0 0 0 0 0 0 0 -0 -0 0 0 0 0 0 0 0 0 0 0 0 0 0 0 0 0 0 0 0 0 0 0 0 0 0 0 0 0 0 0 0 0 0 0
0 0 0 0 0 0 0 0 0 0 0 0 0 0 0 0 0 0 0 0 0 0 0 0 0 0 0 0 0 0 0 0 0 0 0 0 0 0 0 0 0 0 0
0 0 0 0 0 0 0 0 0 0 0 0 0 0 0 0 0 0 0 0 0 0 0 0 0 0 0 0 0 0 0 0 0 0 0 0 0 0 0 0 0 0 0
0 0 0 0 0 0 0 0 0 0 0 0 0 0 0 0 0 0 0 0 0 0 0 0 0 0 0 0 0 0 0 0 0 0 0 0 0 0 0 0 0 0 0
0 0 0 0 0 0 0 0 0 0 0 0 0 0 0 0 0 0 0 0 0 0 0 0 0 0 0 0 0 0 0 0 0 0 0 0 0 0 0 0 0 0 0
0 0 0 0 0 0 0 0 0 0 0 0 0 0 0 0 0 0 0 0 0 0 0 0 0 0 0 0 0 0 0 0 0 0 0 0 0 0 0 0 0 0 0
0 0 0 0 0 0 0 0 0 0 0 0 0 0 0 0 0 0 0 0 0 0 0 0 0 0 0 0 0 0 0 0 0 0 0 0 0 0 0 0 0 0 0
0 0 0 0 0 0 0 0 0 0 0 0 0 0 0 0 0 0 0 0 0 0 0 0 0 0 0 0 0 0 0 0 0 0 0 0 0 0 0 0 0 0 0
0 0 0 0 0 0 0 0 0 0 0 0 0 0 0 0 0 0 0 0 0 0 0 0 0 0 0 0 0 0 0 0 0 0 0 0 0 0 0 0 0 0 0
0 0 0 0 0 0 0 0 0 0 0 0 0 0 0 0 0 0 0 0 0 0 0 0 0 0 0 0 0 0 0 0 0 0 0 0 0 0 0 0 0 0 0
0 0 0 0 0 0 0 0 0 0 0 0 0 0 0 0 0 0 0 0 0 0 0 0 0 0 0 0 0 0 0 0 0 0 0 0 0 0 0 0 0 0 0
0 0 0 0 0 0 0 0 0 0 0 0 0 0 0 0 0 0 0 0 0 0 0 0 0 0 0 0 0 0 0 0 0 0 0 0 0 0 0 0 0 0 0
0 0 0 0 0 0 0 0 0 0 0 0 0 0 0 0 0 0 0 0 0 0 0 0 0 0 0 0 0 0 0 0 0 0 0 0 0 0 0 0 0 0 0
0 0 0 0 0 0 0 0 0 0 0 0 0 0 0 0 0 0 0 0 0 0 0 0 0 0 0 0 0 0 0 0 0 0 0 0 0 0 0 0 0 0 0
0 0 0 0 0 0 0 0 0 0 0 0 0 0 0 0 0 0 0 0 0 0 0 0 0 0 0 0 0 0 0 0 0 0 0 0 0 0 0 0 0 0 0
0 0 0 0 0 0 0 0 0 0 0 0 0 0 0 0 0 0 0 0 0 0 0 0 0 0 0 0 0 0 0 0 0 0 0 0 0 0 0 0 0 0 0
Wind_Speed
3 3 3 2 3 3 3 3 4 5 5 6 6 6 6 6 6 5 5 10 11 10 10 11 11 11 11 10 10 10 10 10 10 10 9 9 8 7 6 6 5 6 6
3 3 3 3 3 2 2 3 4 4 4 4 5 6 6 5 6 5 5 6 10 10 10 10 10 10 10 9 10 10 9 9 9 9 9 9 8 7 7 7 6 5 5
4 3 3 3 2 2 3 3 4 4 4 4 5 5 4 5 5 5 5 4 5 9 10 10 10 9 9 9 9 9 8 8 8 8 8 9 9 8 7 7 6 6 5
4 4 3 3 3 2 2 3 3 3 3 3 3 3 3 3 5 5 5 4 4 4 7 10 9 9 9 10 9 9 9 8 7 6 7 8 8 8 7 6 5 5 5
5 4 3 3 3 2 2 2 2 3 3 3 3 3 3 3 3 4 4 5 5 4 4 6 8 9 9 9 8 8 8 8 7 6 6 6 6 6 7 6 6 5 4
5 4 3 4 4 3 3 3 3 3 3 3 3 3 3 2 2 3 3 3 4 4 4 4 4 5 8 8 8 7 7 7 7 6 6 5 5 5 5 5 5 5 5
4 4 3 4 4 3 4 4 4 4 3 2 2 2 2 2 2 1 1 2 3 3 3 4 3 3 3 6 6 6 6 6 6 6 6 5 5 4 4 4 4 5 5
5 4 5 4 4 4 5 4 4 3 2 2 2 2 2 3 2 1 0 1 1 1 2 3 3 3 3 2 4 5 6 5 5 5 5 5 5 4 4 4 4 4 5
5 5 5 5 5 4 4 5 5 5 4 3 1 2 2 2 2 2 1 1 0 0 1 1 2 2 2 2 2 4 6 5 5 5 5 5 5 5 5 5 5 5 6
5 5 6 6 5 4 5 5 5 4 5 4 2 1 1 0 2 2 2 2 1 1 1 0 0 1 1 1 2 4 5 5 5 5 5 5 5 5 5 5 6 6 6
5 5 5 5 6 5 5 6 5 5 5 5 3 2 2 2 2 2 2 2 2 2 2 2 1 1 1 1 1 3 5 5 5 5 6 6 6 6 5 6 6 6 7
4 5 5 5 5 5 6 6 5 6 5 5 4 4 3 3 3 3 3 3 2 2 2 2 2 2 1 1 1 3 4 5 6 6 6 6 6 7 6 6 7 7 7
4 6 5 5 5 5 6 6 6 6 6 7 6 5 4 4 3 3 3 3 3 2 3 3 3 2 2 2 2 3 4 5 6 7 7 7 6 7 7 7 7 8 8
5 6 6 6 6 6 6 6 5 6 6 6 6 6 4 4 4 4 3 3 3 3 4 4 3 3 3 3 3 4 4 5 6 7 7 7 7 7 7 7 8 9 9
4 6 6 6 6 6 6 6 5 7 6 7 7 7 5 4 4 4 4 4 4 4 5 4 3 3 3 3 4 4 4 5 7 6 7 7 7 7 7 7 9 9 10
4 6 6 6 6 6 6 6 5 6 7 7 6 7 6 5 5 4 4 4 5 5 5 3 4 3 4 3 5 5 5 7 7 7 7 7 7 8 8 8 9 10 10
5 6 6 6 7 6 6 6 7 7 8 8 7 8 8 7 6 5 5 5 5 5 5 4 4 4 6 5 5 5 5 5 4 6 7 7 8 8 8 8 9 10 10
5 5 6 6 6 7 7 7 8 8 8 9 9 9 9 7 8 6 6 6 6 6 5 6 4 4 6 6 5 5 4 4 5 6 7 8 8 8 8 9 9 10 10
4 5 5 6 6 7 7 8 8 8 8 9 9 10 9 9 9 7 7 6 5 5 5 5 5 4 4 4 5 5 5 5 5 5 7 8 8 8 9 9 10 10 10
3 4 5 5 6 6 7 7 7 8 8 8 8 9 10 11 10 9 8 8 6 6 6 5 5 4 4 4 5 4 4 4 4 4 5 6 7 8 9 10 10 10 10
3 3 4 5 5 5 6 7 7 8 8 8 8 8 9 10 12 9 7 7 7 6 5 6 5 5 5 4 5 4 4 4 4 4 4 4 5 5 6 7 8 9 10
3 3 3 4 5 5 7 9 8 7 7 8 8 8 8 9 11 12 12 11 10 9 8 7 6 6 7 6 5 4 4 4 4 3 4 5 4 5 5 5 7 10 10
3 3 3 4 5 5 7 8 9 6 6 6 7 7 6 7 9 8 10 11 11 12 12 9 8 8 7 6 6 6 6 6 5 3 4 5 4 6 5 5 9 10 10
3 3 3 4 4 5 6 7 8 7 6 6 6 7 7 7 8 8 8 8 8 8 9 8 7 6 6 5 6 6 6 5 5 4 4 5 5 5 5 5 7 9 9
4 3 3 4 4 5 6 6 6 4 4 5 6 6 7 7 10 11 8 7 7 7 8 9 8 7 7 7 5 4 4 4 5 4 4 4 4 5 5 5 5 8 9
4 4 3 4 4 4 5 6 6 3 4 4 4 5 8 8 9 11 8 7 8 6 5 5 5 5 5 6 7 5 5 5 4 4 3 3 3 3 4 4 4 5 6
Wind_Direction
116 113 101 92 86 83 88 90 89 84 79 75 72 70 68 65 66 68 64 52 56 64 68 70 70 69 69 68 68 68 65 63 60 59 58 57 58 60 62 64 65 71 71
122 118 108 98 90 86 89 97 98 93 82 79 75 69 67 65 64 64 66 61 52 56 62 65 66 66 66 66 64 64 62 61 59 58 57 55 55 60 60 59 60 63 64
130 127 118 113 101 102 108 105 104 100 93 89 82 73 66 62 66 63 60 59 58 54 58 60 60 62 61 62 61 59 58 55 54 54 54 53 51 55 56 56 54 58 61
137 133 129 122 123 126 127 120 118 109 101 97 91 79 72 69 66 65 65 61 56 55 57 55 55 58 57 57 56 55 53 50 49 49 50 49 46 46 46 49 52 54 54
150 145 137 135 144 141 137 130 128 118 112 103 95 84 74 70 67 68 69 63 59 58 58 55 52 51 54 52 50 48 48 46 43 43 45 44 41 40 42 44 46 49 45
160 152 144 150 153 152 146 146 135 118 114 116 107 87 74 75 70 65 65 64 59 58 56 56 55 49 47 48 47 43 41 40 39 35 34 36 38 38 38 37 36 38 34
164 160 155 160 166 163 157 154 143 131 121 138 133 118 105 92 87 67 62 64 63 57 57 52 49 41 42 44 41 38 36 30 27 28 25 25 27 22 21 25 26 24 20
170 171 172 171 174 167 164 163 157 149 150 181 171 168 171 177 165 131 103 71 53 54 53 49 50 41 35 33 32 27 22 15 9 10 13 13 13 8 5 359 358 3 5
176 178 182 177 178 177 176 175 177 173 175 187 194 203 199 197 160 177 180 176 76 357 31 43 47 38 29 23 17 21 9 360 355 353 355 356 358 355 352 352 350 350 349
183 183 184 184 183 186 185 182 185 186 188 187 182 228 266 153 202 188 190 194 224 261 278 297 324 15 5 6 14 8 359 350 342 340 340 342 342 339 337 336 335 335 336
189 186 186 187 186 189 190 187 190 192 200 196 188 183 183 192 223 218 218 212 229 242 257 259 250 249 262 300 325 2 348 338 330 327 327 326 327 328 325 325 324 322 321
192 193 190 192 191 190 192 193 195 201 201 199 197 196 197 198 200 211 224 231 241 244 251 247 239 235 240 261 302 341 328 327 323 317 314 317 320 324 320 319 317 316 314
202 198 197 199 198 198 196 194 197 204 204 204 205 204 210 216 211 220 215 229 247 260 244 235 229 232 236 252 268 304 300 311 311 308 306 308 313 316 312 312 310 310 311
210 202 203 203 204 202 199 198 201 204 208 210 212 211 211 213 211 216 220 219 235 244 242 235 228 228 234 252 272 283 276 289 298 297 297 301 308 307 303 305 303 304 304
207 203 203 204 204 204 202 202 205 205 207 211 212 212 214 212 214 218 220 221 227 239 243 229 228 230 242 254 265 269 274 276 281 281 285 290 300 300 297 299 300 300 299
210 204 204 206 207 207 206 208 210 208 209 211 211 212 215 213 212 214 216 224 233 240 247 234 243 239 242 254 262 265 267 273 269 266 272 280 285 287 287 290 292 294 295
210 211 208 206 206 208 209 213 217 213 215 214 212 214 216 214 213 213 214 219 225 231 243 251 247 239 238 246 254 257 260 263 260 262 267 271 273 277 281 285 289 291 291
216 214 214 213 210 211 212 216 218 218 220 219 217 216 216 213 216 215 212 218 225 229 236 246 243 241 242 243 250 253 259 260 262 265 266 268 272 274 278 282 287 290 292
228 219 216 217 217 216 216 219 220 221 223 224 221 218 215 212 215 215 214 217 221 226 231 237 239 241 244 240 246 250 255 257 262 260 261 265 270 274 277 280 284 286 290
237 225 220 221 223 223 221 219 221 224 227 228 226 223 218 215 216 214 213 215 215 219 223 228 233 231 233 233 235 240 249 249 257 261 262 269 272 274 276 277 279 282 284
255 242 233 228 225 225 223 220 221 223 224 225 224 226 225 222 222 219 214 211 210 215 220 226 230 233 228 221 229 235 244 251 259 256 261 267 270 267 266 268 271 275 280
270 258 243 237 232 232 227 224 226 226 225 220 221 222 222 222 223 224 225 223 220 217 218 224 229 229 234 236 236 235 240 247 257 239 259 268 269 271 273 272 275 280 282
286 270 259 245 240 238 227 226 228 231 227 222 221 220 220 221 221 224 226 228 229 232 232 231 231 232 232 231 229 235 238 244 255 257 259 264 264 268 274 277 278 278 280
290 282 273 260 252 247 235 235 232 232 232 228 226 223 220 220 218 218 221 226 230 231 234 233 233 240 241 237 234 237 241 246 261 255 245 259 265 270 279 277 277 277 281
296 290 282 272 262 256 243 240 237 236 235 231 229 228 222 220 217 217 217 221 230 232 232 235 240 241 244 241 234 222 218 228 249 249 240 252 269 284 282 275 276 279 283
293 289 284 276 269 262 248 245 236 234 235 237 235 230 224 222 219 215 216 216 221 222 219 222 231 232 232 229 229 226 220 226 242 247 227 242 264 280 280 272 281 286 283